Regional Weather Roundup
Issued by NWS Grand Forks, ND

Home | Current Version | Previous Version | Text Only | Print | Product List | Glossary Off
Versions: 1 2 3 4 5 6 7 8 9 10 11 12 13 14 15 16 17 18 19 20 21 22 23 24 25 26 27 28 29 30 31 32 33 34 35 36 37 38 39 40 41 42 43 44 45 46 47 48 49 50

000
ASUS43 KFGF 240910
RWRFGF
PRAIRIE TO PINES  WEATHER ROUNDUP
NATIONAL WEATHER SERVICE EASTERN NORTH DAKOTA/GRAND FORKS ND
400 AM CDT FRI MAR 24 2017

 **SATELLITE DATA USED TO AUGMENT SKY COVER AT AUTOMATED STATIONS**
 *****  WEATHER ACROSS EASTERN NORTH DAKOTA  *****

CITY           SKY/WX    TMP DP  RH WIND       PRES   REMARKS
GRAND FORKS    FAIR      33  32  96 N12       29.97R WCI  24
GRAND FRKS AFB MOCLDY    32  32 100 N13       29.98R WCI  22
DEVILS LAKE    FAIR      29  27  92 N10       30.00S WCI  20
FARGO          CLOUDY    34  34 100 N5        29.92F FOG
WAHPETON ARPT    N/A     32  32 100 N5        29.92F
$$

 ***** WEATHER ACROSS CENTRAL AND WESTERN NORTH DAKOTA  *****

CITY           SKY/WX    TMP DP  RH WIND       PRES   REMARKS
BISMARCK       FAIR      31  29  92 NW3       30.00R FOG
MINOT          FAIR      27  24  89 NW5       30.02R WCI  22
JAMESTOWN      FAIR      32  31  96 N10       29.94R WCI  24
MINOT AFB      CLOUDY    29  26  86 N3        30.02R
GARRISON         N/A     30  27  88 SE3       30.02R
WILLISTON      FAIR      28  26  92 N5        30.02R WCI  23
DICKINSON      FAIR      31  30  96 NE8       29.97R WCI  23
HETTINGER      FAIR      36  34  92 CALM      29.99R
$$

 *****  OTHER AIRPORT OBSERVATIONS IN OUR AREA  *****

CITY           SKY/WX    TMP DP  RH WIND       PRES   REMARKS
WALHALLA       NOT AVBL
GRAFTON AIRPOR FAIR      30  28  93 N15       30.03R WCI  19
VALLEY CITY AR FAIR      32  32 100 N10       29.94S WCI  24
CANDO          NOT AVBL
CAVALIER APRT  NOT AVBL
GWINNER        FOG       34  34 100 MISG      29.92R VSB 1/4
SHEYENNE NWR     N/A     34  34 100 CALM      29.95S
ROLLA          FAIR      25  25 100 NE10      30.03R WCI  15
 ***** THE ABOVE OBSERVATIONS ARE NON NWS ARE NOT QUALITY
       CONTROLLED AND MAY MIS-REPORT RAIN FOR SNOW...
$$

  *****  WEATHER ACROSS NORTHERN MINNESOTA  *****

CITY           SKY/WX    TMP DP  RH WIND       PRES   REMARKS
FLAG ISLAND    FAIR      32  30  93 NW8       29.94R WCI  25
WARROAD        FAIR      30  27  86 NW8       29.96R FOG     WCI  23
ROSEAU         FAIR      30  27  86 N7        29.97R WCI  23
HALLOCK        FAIR      30  27  86 N10       30.01R WCI  21
THF RVR FALLS  CLOUDY    34  31  88 N13       29.96R WCI  25
BAUDETTE       CLOUDY    34  31  88 NW8       29.91S
WASKISH        CLOUDY    34  32  93 W3        29.93R FOG
CROOKSTON      CLOUDY    34  34 100 NE9       29.97S FOG
GREENBUSH NDAW   N/A     30  28  93 N6          N/A  WCI  24
$$
  *****  WEATHER ACROSS CENTRAL AND WEST MINNESOTA  *****

CITY           SKY/WX    TMP DP  RH WIND       PRES   REMARKS
FOSSTON        CLOUDY    30  30 100 N8        29.94R FOG     WCI  23
BEMIDJI        CLOUDY    32  32 100 NW5       29.91R FOG
PARK RAPIDS    CLOUDY    34  31  88 CALM      29.91R FOG
ELBOW LAKE     CLOUDY    33  33 100 CALM      29.89F FOG
WADENA         CLOUDY    32  32 100 CALM      29.89F FOG
DETROIT LAKES  CLOUDY    34  32  93 CALM      29.92S FOG
MOORHEAD       CLOUDY    34  32  93 N3        29.93S FOG
FERGUS FALLS   CLOUDY    34  34 100 CALM      29.95S FOG
MORRIS MN      CLOUDY    34  34 100 N8        29.86F FOG
STAPLES        DRIZZLE   32  32 100 CALM      29.90F
$$
  *****  WEATHER ELSEWHERE ACROSS MINNESOTA  *****

CITY           SKY/WX    TMP DP  RH WIND       PRES   REMARKS
DULUTH         DRIZZLE   33  32  96 N3        29.87F FOG
INTRNTL FALLS  MOCLDY    33  31  92 CALM      29.88F FOG
ELY            CLOUDY    32  32 100 CALM      29.86F FOG
CLOQUET        MIX PCPN  32  30  93 N5        29.88S
WHEATON        CLOUDY    34  34 100 N5        29.92F FOG
BRAINERD       CLOUDY    33  33 100 N5        29.89F FOG
HIBBING        CLOUDY    31  31 100 SW3       29.89S FOG
ALEXANDRIA     CLOUDY    34  33  96 N7        29.87F FOG
SAINT CLOUD    CLOUDY    35  35 100 N5        29.87R FOG
MINNEAPOLIS    CLOUDY    39  36  89 E6        29.83F
$$

  *****  WEATHER ACROSS SOUTH DAKOTA  *****

CITY           SKY/WX    TMP DP  RH WIND       PRES   REMARKS
SIOUX FALLS    CLOUDY    41  39  93 N7        29.81R
BROOKINGS      CLOUDY    35  34  96 N7        29.83R FOG
WATERTOWN      FOG       33  33 100 N8        29.85R VSB 1/2
HURON          CLOUDY    37  37 100 N13       29.88R
SISSETON         N/A     34  34 100 N7        29.90S
ABERDEEN       CLOUDY    35  32  88 N9        29.92R FOG
MITCHELL       MOCLDY    39  38  96 N15       29.87R
PIERRE         CLOUDY    42  36  79 N9        29.92R
MOBRIDGE       FAIR      39  33  79 NW9       29.92R
RAPID CITY     CLOUDY    42  37  82 N8        29.98S
$$

  *****  SOME WEATHER IN NEARBY STATES *****

CITY           SKY/WX    TMP DP  RH WIND       PRES   REMARKS
GLASGOW MT     FAIR      31  27  85 W6        29.96R
GREAT FALLS MT FAIR      33  18  53 CALM      30.01R
CHEYENNE WY    LGT SNOW  33  32  96 N16G25    29.93R FOG     WCI  23
SCOTTSBLUFF NE CLOUDY    42  38  85 N15       29.95R
OMAHA NE       LGT RAIN  56  51  84 N8        29.75R
DES MOINES IA  MOCLDY    55  44  66 SE7       29.75S
DAVENPORT IA   FAIR      52  44  74 S20       29.85F
CHICAGO IL     MOCLDY    47  37  68 S9        29.91F
EAU CLAIRE WI  LGT RAIN  39  37  92 CALM      29.84F FOG
LA CROSSE WI   LGT RAIN  41  39  93 CALM      29.86R
$$

  *****  SOME NATIONAL WEATHER *****

CITY           SKY/WX    TMP DP  RH WIND       PRES   REMARKS
LA GUARDIA NY  MOCLDY    38  16  40 S9        30.48F
RALEIGH NC     FAIR      38  29  70 S5        30.52F
ATLANTA GA     MOCLDY    58  44  60 SE7       30.39R
NEW ORLEANS LA FAIR      68  66  93 SE13      30.15F
OKLAHOMA CITY  CLOUDY    67  46  47 S25G43    29.75F
ALBUQUERQUE NM CLOUDY    43  30  60 W17       29.87F
SALT LAKE CITY FAIR      35  34  96 SE6       30.16R
LOS ANGELES CA FAIR      55  52  89 N3        30.24R
BOISE ID       FAIR      44  25  47 SE12      30.04S
SEATTLE WA     CLOUDY    46  44  93 CALM      29.84F
$$

*** WEATHER ACROSS MANITOBA...SASKATCHEWAN AND ONTARIO ***
                ***ONTARIO***

CITY           SKY/WX    TMP DP  RH WIND       PRES   REMARKS
GERALDTON      CLOUDY    30  28  93 SW7       29.83F WCI  23
THUNDER BAY    CLOUDY    32  32 100 CALM      29.88F FOG
SIOUX LOOKOUT  CLOUDY    32  30  93 NW2       29.88R
TORONTO        LGT RAIN  34  27  75 NE6       30.12F
BIG TROUT LK   FLURRIES   9   3  78 N12G18    30.06R WCI  -6
PICKLE LAKE    NOT AVBL
DRYDEN         CLOUDY    34  32  93 W6        29.88R
KENORA         NOT AVBL
$$
                *** MANITOBA***

CITY           SKY/WX    TMP DP  RH WIND       PRES   REMARKS
BRANDON        CLEAR     25  21  86 E5        30.06R WCI  19
DAUPHIN        CLOUDY    27  21  80 N7        30.09S WCI  19
ISLAND LAKE    CLEAR      5   0  78 NE8       30.19R WCI  -8
PILOT MOUND      N/A     25  23  93 NE9         N/A  WCI  15
THE PAS        FLURRIES  23  18  80 VRB2      30.17R
THOMPSON       NOT AVBL
WINNIPEG       PTCLDY    28  23  80 N13       30.05R WCI  18
LYNN LAKE      CLEAR     -9 -13  84 E6        30.27R WCI -23
CHURCHILL      CLEAR    -17 -24  70 NW13      30.34R WCI -39
GILLAM         CLEAR    -18 -24  76 NW8       30.32R WCI -37
$$
                ***SASKATCHEWAN***

CITY           SKY/WX    TMP DP  RH WIND       PRES   REMARKS
ESTEVAN        PTCLDY    25  23  93 E6        30.02R WCI  18
KINDERSLEY     FOG       25  25 100 NE7       30.01F VSB 3/8 WCI  17
LLOYDMINSTER   FOG       23  23 100 S7        30.02R VSB 1/4 WCI  15
PRINCE ALBERT  MOCLDY    27  19  74 SE7       30.10R WCI  19
REGINA         CLEAR     27  23  86 E7        30.03R WCI  19
YORKTON        CLEAR     19  18  93 N5        30.07R WCI  13
N. BATTLEFORD  CLOUDY    27  27 100 SE9       30.07S WCI  17
LA RONGE       CLOUDY    25  19  80 E5        30.12R WCI  19
SASKATOON      MOCLDY    27  21  80 E6        30.09S WCI  20
SWIFT CURRENT  CLOUDY    28  27  93 E10       29.97R WCI  19
$$
NOTE: THESE ARE AUTOMATED STATIONS WITH LIMITED QUALITY CONTROL
      "FAIR" INDICATES FEW OR NO CLOUDS BELOW 12,000 FEET WITH NO
      SIGNIFICANT WEATHER AND/OR OBSTRUCTIONS TO VISIBILITY.
      SKY/WX - SKY CONDITION AND SIGNIFICANT WEATHER.
      TMP - AIR TEMPERATURE.    DP   - DEWPOINT TEMPERATURE.
      RH  - RELATIVE HUMIDITY.  PRES - PRESSURE.
      HX  - HEAT INDEX.         WCI  - WIND CHILL INDEX.
$



USA.gov is the U.S. government's official web portal to all federal, state and local government web resources and services.